Regional Weather Roundup
Issued by NWS

Home | Current Version | Previous Version | Text Only | Print | Product List | Glossary On
Versions: 1 2 3 4 5 6 7 8 9 10 11 12 13 14 15 16 17 18 19 20 21 22 23 24 25 26 27 28 29 30 31 32 33 34 35 36 37 38 39 40 41 42 43 44 45 46 47 48 49 50
000
ASUS43 KLSX 171607
RWRMO

WEATHER SUMMARY FOR MISSOURI
NATIONAL WEATHER SERVICE SPRINGFIELD MO
1000 AM CST SUN DEC 17 2017

NOTE: "FAIR" INDICATES FEW OR NO CLOUDS BELOW 12,000 FEET WITH NO
       SIGNIFICANT WEATHER AND/OR OBSTRUCTIONS TO VISIBILITY.
       CURRENT SKY AND/OR WEATHER CONDITIONS ARE NOT AVAILABLE FOR
       CHILLICOTHE AND FARMINGTON.

MOZ001>031-035>038-043-044-053-054-171700-
...NORTHERN AND WESTERN MISSOURI...

CITY           SKY/WX    TMP DP  RH WIND       PRES   REMARKS
KANSAS CTY INT CLOUDY    43  42  97 SW8       30.04R FOG
KANSAS C DTWN  CLOUDY    45  42  89 S8        30.04S
LEE`S SUMMIT   CLOUDY    44  44 100 SW9       30.05R FOG
ST JOSEPH      LGT RAIN  43  43 100 SW7       30.04R FOG
CHILLICOTHE      N/A     44  40  85 S6        30.05R
KIRKSVILLE     LGT RAIN  43  41  93 S3        30.05R

$$
MOZ066>068-077>081-088>096-101>105-171700-
...SOUTHWEST MISSOURI...

CITY           SKY/WX    TMP DP  RH WIND       PRES   REMARKS
SPRINGFIELD    CLOUDY    44  43  96 S10       30.08R FOG
JOPLIN         CLOUDY    44  44 100 S7        30.08R FOG
BRANSON        FOG       45  45 100 E5        30.10R VSB 1

$$
MOZ032>034-039>042-045>050-055>058-069>072-171700-
...CENTRAL MISSOURI...

CITY           SKY/WX    TMP DP  RH WIND       PRES   REMARKS
COLUMBIA       CLOUDY    45  43  93 SW7       30.08F
JEFFERSON CITY CLOUDY    46  41  82 CALM      30.10F
ROLLA          CLOUDY    44  38  79 S5        30.10R
SEDALIA        CLOUDY    45  45 100 S6        30.07F
WHITEMAN AFB   CLOUDY    43  42  94 SW9       30.02S
WARRENSBURG    CLOUDY    43  41  93 S6        30.05F FOG
OSAGE BEACH    LGT RAIN  44  42  93 S3        30.09S

$$
MOZ051-052-059>065-171700-
...EAST CENTRAL MISSOURI...

CITY           SKY/WX    TMP DP  RH WIND       PRES   REMARKS
ST LOUIS INTL  CLOUDY    48  34  58 SW3       30.11R
SPIRIT OF STL  CLOUDY    49  33  54 CALM      30.10R
ST CHARLES     CLOUDY    46  33  60 CALM      30.11R

$$
MOZ072>076-082>087-097>100-106>115-171700-
...SOUTH CENTRAL AND SOUTHEAST MISSOURI...

CITY           SKY/WX    TMP DP  RH WIND       PRES   REMARKS
CAPE GIRARDEAU CLOUDY    43  41  93 S6        30.13S FOG
FARMINGTON     CLOUDY    44  41  89 SW8       30.11R
POPLAR BLUFF   CLOUDY    44  42  93 S7        30.14R FOG
WEST PLAINS    CLOUDY    43  41  93 S5        30.10R

$$



USA.gov is the U.S. government's official web portal to all federal, state and local government web resources and services.